Overview Statistics Trail Chart Weather Telemetry Raw packets
 

This is the latest recevied weather packets stored in our database for station/object KC2GYU. If no packets are shown the sender has not sent any weather packets the latest 10 day(s).

<< 39 40 41 42 43 44 45 >>
Time Temp. Humidity Pressure Rain* Wind** Luminosity Snow
1777819338 11.67° C 56% 1014.9 hPa 0 mm - 209 W/m² -
1777819034 11.67° C 56% 1014.8 hPa 0 mm - 648 W/m² -
1777818732 12.22° C 54% 1014.8 hPa 0 mm - 151 W/m² -
1777818428 12.22° C 56% 1014.8 hPa 0 mm - 550 W/m² -
1777818125 11.67° C 57% 1014.9 hPa 0 mm - 536 W/m² -
1777817821 11.67° C 57% 1014.8 hPa 0 mm - 541 W/m² -
1777817519 11.67° C 63% 1014.8 hPa 0 mm - 513 W/m² -
1777817215 11.11° C 60% 1014.8 hPa 0 mm - 539 W/m² -
1777816913 11.67° C 58% 1014.8 hPa 0 mm - 612 W/m² -
1777816609 11.11° C 60% 1014.9 hPa 0 mm - 326 W/m² -
1777816306 11.67° C 59% 1014.6 hPa 0 mm - 280 W/m² -
1777816004 11.67° C 60% 1014.4 hPa 0 mm - 626 W/m² -
1777815701 11.67° C 58% 1014.6 hPa 0 mm - 449 W/m² -
1777815398 11.67° C 60% 1014.4 hPa 0 mm - 460 W/m² -
1777815095 11.11° C 61% 1014.5 hPa 0 mm - 448 W/m² -
1777814786 10.56° C 60% 1014.8 hPa 0 mm - 437 W/m² -
1777814483 10.56° C 64% 1014.6 hPa 0 mm - 427 W/m² -
1777814180 10.56° C 63% 1014.5 hPa 0 mm - 413 W/m² -
1777813877 10° C 65% 1014.7 hPa 0 mm - 255 W/m² -
1777813575 8.89° C 67% 1014.5 hPa 0 mm - 220 W/m² -
1777813273 8.89° C 68% 1014.6 hPa 0 mm - 170 W/m² -
1777812969 8.89° C 70% 1014.5 hPa 0 mm - 156 W/m² -
1777812667 8.89° C 70% 1014.4 hPa 0 mm - 145 W/m² -
1777812363 8.33° C 70% 1014.6 hPa 0 mm - 129 W/m² -
1777812062 8.33° C 71% 1014.3 hPa 0 mm - 116 W/m² -

* Rain latest hour (hover to see other rain measurements)
** Current wind speed in m/s (hover to see current wind gust speed)